Total_Precipitation_Accumulation
1.29 1.47 1.44 1.13 1.03 0.90 0.79 0.76 0.58 0.42 0.40 0.47 0.47 0.44 0.38 0.34 0.36 0.34 0.31 0.36 0.45 0.47 0.50 0.61 0.72 0.88 0.99 1.09 1.23 1.43 1.65 1.75 1.78 1.80 1.76 1.69 1.84 1.95 1.86 1.76 1.91 2.12 2.29 2.46
1.41 1.15 0.72 0.61 0.66 0.80 0.85 0.85 0.63 0.44 0.44 0.54 0.53 0.49 0.39 0.33 0.35 0.32 0.30 0.33 0.43 0.48 0.52 0.59 0.68 0.83 0.94 1.07 1.15 1.34 1.58 1.72 1.70 1.65 1.68 1.66 1.69 1.78 1.86 1.82 1.82 1.94 2.16 2.38
1.14 0.72 0.49 0.64 0.75 0.90 0.87 0.75 0.60 0.57 0.57 0.64 0.70 0.66 0.41 0.33 0.33 0.33 0.35 0.37 0.44 0.48 0.53 0.57 0.65 0.76 0.89 1.05 1.12 1.17 1.41 1.69 1.75 1.75 1.84 1.85 1.92 1.95 1.93 1.83 1.79 1.87 1.98 2.12
0.88 0.53 0.55 0.75 0.78 0.83 0.83 0.47 0.51 0.64 0.86 0.89 0.78 0.96 0.51 0.35 0.34 0.34 0.38 0.44 0.47 0.50 0.53 0.60 0.65 0.77 0.86 1.01 1.21 1.25 1.32 1.56 1.78 1.81 1.83 1.79 1.81 1.80 1.80 1.72 1.65 1.76 1.96 2.05
0.98 0.57 0.60 0.77 0.63 0.63 0.66 0.44 0.54 0.74 0.99 1.01 0.77 0.95 0.59 0.35 0.38 0.33 0.32 0.38 0.42 0.47 0.56 0.63 0.68 0.80 0.94 1.07 1.26 1.37 1.41 1.46 1.65 1.73 1.70 1.71 1.69 1.70 1.78 1.78 1.71 1.66 1.81 2.01
0.76 0.57 0.62 0.58 0.46 0.53 0.62 0.72 0.89 1.05 1.44 1.48 0.61 0.64 0.63 0.51 0.51 0.39 0.33 0.38 0.41 0.48 0.60 0.65 0.73 0.86 1.02 1.16 1.33 1.43 1.50 1.43 1.50 1.72 1.71 1.60 1.57 1.58 1.66 1.75 1.82 1.79 1.74 1.82
1.01 0.76 0.68 0.58 0.71 0.84 0.99 1.45 2.16 2.25 2.08 1.17 0.34 0.41 0.60 0.49 0.47 0.43 0.40 0.44 0.43 0.48 0.59 0.65 0.74 0.89 0.98 1.10 1.25 1.39 1.43 1.43 1.45 1.60 1.69 1.60 1.50 1.49 1.48 1.55 1.66 1.74 1.74 1.70
1.21 1.06 0.76 0.65 0.82 1.05 1.03 1.27 1.72 1.64 1.04 0.50 0.29 0.43 0.50 0.41 0.34 0.35 0.36 0.42 0.43 0.43 0.50 0.59 0.69 0.82 0.92 0.96 1.08 1.25 1.34 1.35 1.38 1.53 1.70 1.71 1.57 1.55 1.44 1.44 1.52 1.60 1.62 1.58
1.19 0.86 0.53 0.48 0.49 0.66 0.93 0.97 0.90 1.26 0.84 0.57 0.44 0.40 0.39 0.29 0.26 0.29 0.32 0.36 0.41 0.43 0.48 0.54 0.64 0.69 0.75 0.86 0.95 1.07 1.26 1.36 1.37 1.41 1.61 1.81 1.79 1.65 1.53 1.41 1.45 1.52 1.54 1.55
1.27 1.03 0.50 0.49 0.66 0.73 0.80 0.90 1.14 1.61 1.33 0.78 0.46 0.40 0.53 0.43 0.37 0.33 0.34 0.36 0.37 0.41 0.51 0.55 0.59 0.61 0.67 0.77 0.86 0.95 1.14 1.29 1.35 1.36 1.44 1.64 1.87 1.80 1.70 1.66 1.49 1.47 1.48 1.50
1.12 1.28 0.81 0.67 0.90 0.88 0.85 1.09 1.35 1.48 1.17 0.99 0.65 0.55 0.59 0.51 0.44 0.39 0.36 0.34 0.35 0.38 0.47 0.52 0.54 0.61 0.66 0.72 0.83 0.93 1.05 1.17 1.24 1.26 1.31 1.42 1.64 1.82 1.83 1.77 1.63 1.46 1.44 1.41
1.09 1.43 1.04 0.61 0.53 0.55 0.74 0.92 1.18 1.59 1.19 0.81 0.76 0.63 0.41 0.35 0.37 0.35 0.34 0.32 0.33 0.37 0.42 0.48 0.51 0.59 0.63 0.70 0.80 0.88 0.96 1.10 1.19 1.22 1.27 1.34 1.42 1.58 1.79 1.72 1.59 1.43 1.38 1.39
1.71 2.10 1.65 1.10 0.87 0.76 0.87 0.83 0.90 1.15 1.27 0.93 0.81 0.60 0.33 0.25 0.28 0.29 0.30 0.32 0.33 0.38 0.42 0.47 0.53 0.54 0.60 0.69 0.75 0.80 0.87 1.01 1.12 1.21 1.25 1.25 1.31 1.38 1.49 1.61 1.54 1.43 1.35 1.34
2.10 2.23 1.54 1.21 0.96 0.91 0.87 0.65 0.67 1.12 1.47 0.88 0.53 0.44 0.31 0.29 0.31 0.30 0.31 0.32 0.34 0.37 0.41 0.44 0.50 0.53 0.56 0.64 0.74 0.76 0.86 0.97 1.02 1.12 1.16 1.17 1.16 1.21 1.26 1.36 1.52 1.50 1.41 1.32
1.80 1.80 0.85 0.51 0.40 0.49 0.56 0.49 0.50 0.76 0.81 0.73 0.44 0.37 0.39 0.38 0.37 0.37 0.37 0.37 0.35 0.35 0.39 0.43 0.49 0.54 0.59 0.66 0.74 0.80 0.84 0.86 0.89 1.00 1.06 1.11 1.15 1.22 1.26 1.22 1.33 1.49 1.44 1.29
1.55 1.53 0.77 0.46 0.31 0.38 0.44 0.35 0.38 0.44 0.45 0.44 0.33 0.34 0.35 0.34 0.29 0.31 0.35 0.38 0.40 0.40 0.41 0.43 0.49 0.54 0.61 0.68 0.78 0.90 0.91 0.89 0.83 0.90 0.99 1.06 1.16 1.30 1.31 1.25 1.29 1.40 1.47 1.38
1.46 1.50 1.29 0.71 0.34 0.59 0.65 0.44 0.43 0.45 0.44 0.48 0.53 0.45 0.35 0.34 0.34 0.39 0.44 0.46 0.47 0.46 0.46 0.46 0.50 0.57 0.65 0.71 0.81 0.92 0.95 0.93 0.89 0.89 0.95 1.01 1.07 1.24 1.31 1.28 1.34 1.39 1.46 1.51
1.19 1.43 1.81 1.19 0.84 1.13 0.58 0.31 0.34 0.40 0.46 0.50 0.48 0.40 0.38 0.42 0.38 0.38 0.45 0.52 0.52 0.49 0.48 0.48 0.53 0.59 0.63 0.70 0.76 0.84 0.89 0.90 0.94 0.96 0.98 1.03 1.03 1.08 1.23 1.33 1.35 1.38 1.41 1.44
0.72 1.39 2.12 1.77 1.26 0.68 0.32 0.25 0.34 0.46 0.52 0.44 0.40 0.36 0.34 0.31 0.28 0.30 0.32 0.40 0.50 0.51 0.51 0.53 0.56 0.61 0.62 0.65 0.71 0.81 0.86 0.87 0.98 1.04 1.04 1.02 0.97 1.00 1.12 1.22 1.33 1.37 1.39 1.36
0.74 1.35 2.29 2.00 1.54 0.73 0.42 0.26 0.24 0.39 0.64 0.39 0.35 0.38 0.35 0.34 0.45 0.37 0.30 0.37 0.47 0.46 0.49 0.53 0.56 0.54 0.59 0.63 0.67 0.78 0.85 0.84 0.94 1.03 1.07 0.97 0.88 0.86 0.90 1.01 1.21 1.32 1.34 1.29
1.16 1.82 2.17 1.67 1.37 0.61 0.39 0.27 0.29 0.63 0.71 0.38 0.36 0.40 0.40 0.47 0.54 0.42 0.36 0.40 0.44 0.42 0.45 0.48 0.49 0.50 0.60 0.65 0.65 0.73 0.82 0.88 0.93 0.99 1.06 0.97 0.87 0.85 0.86 0.94 1.12 1.26 1.33 1.33
0.91 1.28 1.30 1.23 1.43 0.78 0.38 0.39 0.63 0.73 0.42 0.33 0.31 0.32 0.34 0.33 0.30 0.29 0.33 0.38 0.40 0.37 0.37 0.39 0.44 0.48 0.56 0.62 0.67 0.73 0.81 0.88 0.96 1.01 1.00 0.99 0.96 0.91 0.92 0.96 1.10 1.24 1.32 1.39
0.70 0.92 0.97 0.92 0.80 0.52 0.42 0.52 0.54 0.47 0.38 0.29 0.30 0.28 0.28 0.27 0.27 0.30 0.34 0.36 0.38 0.37 0.37 0.37 0.41 0.45 0.52 0.59 0.66 0.77 0.84 0.84 0.92 0.97 1.00 1.00 1.01 0.99 0.99 1.02 1.11 1.23 1.31 1.36
0.46 0.50 0.69 0.65 0.43 0.34 0.36 0.39 0.39 0.35 0.32 0.28 0.28 0.26 0.25 0.24 0.25 0.28 0.32 0.33 0.35 0.36 0.36 0.37 0.40 0.43 0.52 0.58 0.62 0.73 0.81 0.80 0.81 0.87 0.97 0.97 1.00 1.05 1.08 1.11 1.13 1.20 1.30 1.37
0.41 0.49 0.63 0.58 0.35 0.32 0.30 0.31 0.32 0.27 0.24 0.22 0.23 0.24 0.24 0.25 0.25 0.27 0.31 0.32 0.35 0.40 0.41 0.41 0.44 0.46 0.53 0.60 0.67 0.74 0.76 0.75 0.76 0.80 0.92 1.01 1.04 1.10 1.14 1.15 1.19 1.25 1.24 1.39
0.31 0.45 0.63 0.57 0.37 0.43 0.36 0.28 0.27 0.27 0.25 0.26 0.26 0.25 0.23 0.25 0.29 0.28 0.31 0.33 0.37 0.42 0.45 0.45 0.46 0.50 0.55 0.62 0.73 0.77 0.73 0.72 0.76 0.81 0.87 0.98 1.07 1.09 1.08 1.07 1.13 1.29 1.31 1.34